Muskogee, OK

11:42 PM CST on December 11, 2017 (GMT -0600)
Davis

Weather History for KMKO - November, 2013

Change the Weather History Date:

Monday, November 11, 2013

  Actual Average Record
Temperature  
Mean Temperature 58 °F -  
Max Temperature 72 °F 59 °F 81 °F (2015)
Min Temperature 45 °F 40 °F 30 °F (2014)
Degree Days  
Heating Degree Days 6    
Growing Degree Days 8 (Base 50)    
Moisture  
Dew Point 48 °F    
Average Humidity 70    
Maximum Humidity 93    
Minimum Humidity 46    
Precipitation  
Precipitation 0.00 in - - ()
Sea Level Pressure  
Sea Level Pressure 30.26 in    
Wind  
Wind Speed 7 mph (SSW)    
Max Wind Speed 25 mph    
Max Gust Speed 36 mph    
Visibility 8 miles    
Events      
Averages and records for this station are not official NWS values.
T = Trace of Precipitation, MM = Missing Value Source: NWS Daily Summary

Daily Weather History Graph

Daily Weather History Graph

Search for Another Location

Airport or City:

Trip Planner

Search our weather history database for the weather conditions in past years. The results will help you decide how hot, cold, wet, or windy it might be!

Date:

Astronomy

Nov. 11, 2013 Rise Set
Actual Time 6:53 AM CST 5:17 PM CST
Civil Twilight 6:26 AM CST 5:44 PM CST
Nautical Twilight 5:55 AM CST 6:14 PM CST
Astronomical Twilight 5:25 AM CST 6:44 PM CST
Moon 1:47 PM CST (11/11) 12:51 AM CST (11/11)
Length of Visible Light 11h 17m
Length of Day
10h 23m
Waxing Gibbous, 66% of the Moon is Illuminated
Nov 11
Waxing Gibbous
Nov 17
Full
Nov 25
Last Quarter
Dec 2
New
Dec 9
First Quarter

Hourly Weather History & Observations

Time (CST) Temp. Windchill Dew Point Humidity Pressure Visibility Wind Dir Wind Speed Gust Speed Precip Events Conditions
12:53 AM 50.0 °F - 46.0 °F 86% 30.27 in 10.0 mi SSE 4.6 mph - N/A   Overcast
1:53 AM 51.1 °F - 46.0 °F 83% 30.26 in 10.0 mi SSE 5.8 mph - N/A   Overcast
2:53 AM 50.0 °F - 46.0 °F 86% 30.26 in 10.0 mi SSE 3.5 mph - N/A   Mostly Cloudy
3:53 AM 48.9 °F - 45.0 °F 86% 30.26 in 10.0 mi South 3.5 mph - N/A   Clear
4:53 AM 46.0 °F 43.9 °F 44.1 °F 93% 30.26 in 10.0 mi South 4.6 mph - N/A   Clear
5:53 AM 46.9 °F - 45.0 °F 93% 30.26 in 10.0 mi SSE 4.6 mph - N/A   Overcast
6:53 AM 45.0 °F 41.8 °F 43.0 °F 93% 30.27 in 10.0 mi SSE 5.8 mph - N/A   Partly Cloudy
7:53 AM 50.0 °F - 46.0 °F 86% 30.28 in 10.0 mi SSE 5.8 mph - N/A   Overcast
8:53 AM 53.1 °F - 46.9 °F 80% 30.29 in 10.0 mi SSE 6.9 mph - N/A   Overcast
9:53 AM 55.9 °F - 48.0 °F 75% 30.29 in 10.0 mi SSE 6.9 mph - N/A   Overcast
10:53 AM 60.1 °F - 48.9 °F 67% 30.27 in 10.0 mi SSE 5.8 mph - N/A   Overcast
11:53 AM 66.0 °F - 48.9 °F 54% 30.25 in 10.0 mi Variable 6.9 mph - N/A   Overcast
12:53 PM 69.1 °F - 50.0 °F 51% 30.21 in 10.0 mi Variable 6.9 mph - N/A   Clear
1:48 PM 69.8 °F - 50.0 °F 49% 30.20 in 1.8 mi WSW 6.9 mph - N/A   Haze
1:53 PM 70.0 °F - 50.0 °F 49% 30.19 in 1.2 mi SW 4.6 mph - N/A   Haze
1:57 PM 69.8 °F - 50.0 °F 49% 30.20 in 2.0 mi SSW 3.5 mph - N/A   Haze
2:18 PM 71.6 °F - 50.0 °F 46% 30.19 in 3.0 mi West 5.8 mph - N/A   Haze
2:26 PM 71.6 °F - 50.0 °F 46% 30.19 in 2.5 mi Variable 5.8 mph - N/A   Haze
2:37 PM 71.6 °F - 50.0 °F 46% 30.19 in 5.0 mi SW 3.5 mph - N/A   Haze
2:53 PM 71.1 °F - 50.0 °F 47% 30.18 in 7.0 mi WSW 4.6 mph - N/A   Clear
3:53 PM 72.0 °F - 50.0 °F 46% 30.18 in 10.0 mi South 4.6 mph - N/A   Mostly Cloudy
4:53 PM 68.0 °F - 51.1 °F 55% 30.18 in 10.0 mi Calm Calm - N/A   Overcast
5:53 PM 66.0 °F - 51.1 °F 59% 30.19 in 10.0 mi Calm Calm - N/A   Overcast
6:53 PM 64.0 °F - 53.1 °F 67% 30.22 in 10.0 mi Calm Calm - N/A   Overcast
7:53 PM 64.0 °F - 53.1 °F 67% 30.25 in 10.0 mi North 11.5 mph - N/A   Overcast
8:53 PM 62.1 °F - 55.0 °F 78% 30.28 in 10.0 mi North 17.3 mph - N/A   Overcast
9:19 PM 60.8 °F - 53.6 °F 77% 30.30 in 10.0 mi North 20.7 mph 26.5 mph N/A   Overcast
9:35 PM 55.4 °F - 51.8 °F 88% 30.32 in 10.0 mi NNW 21.9 mph 31.1 mph N/A   Overcast
9:53 PM 51.1 °F - 46.9 °F 86% 30.34 in 10.0 mi North 25.3 mph 35.7 mph N/A   Overcast
10:53 PM 48.0 °F - 44.1 °F 86% 30.38 in 9.0 mi North 21.9 mph 32.2 mph N/A   Overcast
11:43 PM 46.4 °F 38.1 °F 42.8 °F 87% 30.40 in 10.0 mi North 24.2 mph 31.1 mph N/A   Overcast
11:53 PM 46.9 °F - 41.0 °F 80% 30.41 in 10.0 mi North 19.6 mph 31.1 mph N/A   Overcast